Flag for U.S.A. Weather past 2 weeks in Lexington, Virginia, U.S.A.

Now
68 °F

Mostly cloudy.


Feels Like: 68 °F
Forecast: 66 / 77 °F
Wind: 6 mph from Southeast

Location: Hot Springs / Ingalls

Current Time: Jul 5, 2015 at 1:58:50 PM

Latest Report: Jul 5, 2015 at 1:10 PM


Visibility: 7 mi

Pressure: 30.25 "Hg

Humidity: 100%

Dew point: 68 °F

Location of LexingtonLocation

Historic Weather in Lexington — Graph

°F

Lexington temperature yesterday

Maximum temperature yesterday: 71 °F (at 4:10 PM)
Minimum temperature yesterday: 62 °F (at 12:10 AM)
Average temperature yesterday: 65 °F

Past Weeks' High & Low Weather Summary

 TemperatureHumidityPressure
High81 °F (Jun 23, 3:15 PM)100% (Jun 20, 4:15 PM)30.26 "Hg (Jun 20, 4:15 PM)
Low53 °F (Jun 28, 6:15 AM)26% (Jun 24, 6:15 PM)29.79 "Hg (Jun 28, 3:15 AM)
Average66 °F85%30.07 "Hg
* Reported Jun 20 12:15 PM — Jul 5 12:10 PM, Lexington, Weather by CustomWeather, © 2015

Note: Actual official high and low records may vary slightly from our data, if they occured in-between our weather recording intervals... More about our weather records

Advertising

Lexington weather history for previous 24 hours

 ConditionsComfort  
Time TempWeatherWind HumidityBarometerVisibility
12:10 PM
Sun, Jul 5
68 °FFog.7 mph100%30.26 "Hg5 mi
11:50 AM67 °FFog.5 mph100%30.26 "Hg5 mi
11:30 AM67 °FFog.6 mph100%30.26 "Hg4 mi
11:10 AM66 °FFog.5 mph100%30.26 "Hg4 mi
10:50 AM66 °FFog.5 mph100%30.26 "Hg4 mi
10:30 AM65 °FFog.6 mph100%30.25 "Hg1 mi
10:10 AM65 °FFog.6 mph100%30.25 "Hg2 mi
9:50 AM64 °FFog.6 mph100%30.25 "Hg2 mi
9:10 AM66 °FLow clouds.3 mph100%30.25 "Hg10 mi
8:50 AM65 °FFog.3 mph100%30.24 "Hg5 mi
8:30 AM65 °FSunny.No wind100%30.24 "Hg10 mi
8:10 AM67 °FSunny.3 mph97%30.24 "Hg10 mi
7:50 AM65 °FSunny.No wind100%30.24 "Hg10 mi
7:30 AM64 °FSunny.No wind100%30.23 "Hg7 mi
7:10 AM64 °FSunny.3 mph100%30.23 "Hg7 mi
6:50 AM64 °FClear.5 mph100%30.22 "Hg7 mi
6:30 AM63 °FClear.5 mph100%30.22 "Hg10 mi
6:10 AM63 °FClear.5 mph100%30.21 "Hg10 mi
5:50 AM63 °FClear.3 mph100%30.21 "Hg10 mi
5:30 AM63 °FClear.No wind99%30.20 "Hg10 mi
5:10 AM63 °FClear.5 mph99%30.19 "Hg10 mi
4:50 AM63 °FClear.3 mph100%30.19 "Hg10 mi
4:30 AM63 °FClear.No wind100%30.18 "Hg10 mi
4:10 AM63 °FClear.3 mph100%30.18 "Hg10 mi
3:50 AM62 °FClear.No wind100%30.18 "Hg10 mi
3:10 AM64 °FClear.No wind97%30.18 "Hg10 mi
2:50 AM63 °FClear.No wind100%30.18 "Hg10 mi
2:30 AM62 °FClear.3 mph100%30.18 "Hg10 mi
2:10 AM63 °FClear.No wind99%30.18 "Hg10 mi
1:50 AM63 °FClear.No wind100%30.18 "Hg10 mi
1:30 AM64 °FClear.No wind98%30.18 "Hg10 mi
1:10 AM63 °FClear.No wind100%30.18 "Hg10 mi
12:50 AM62 °FClear.No wind100%30.18 "Hg10 mi
12:10 AM63 °FPassing clouds.No wind100%30.18 "Hg7 mi
11:50 PM
Sat, Jul 4
64 °FPartly cloudy.3 mph100%30.19 "Hg10 mi
11:30 PM65 °FOvercast.No wind94%30.19 "Hg10 mi
11:10 PM65 °FOvercast.No wind96%30.19 "Hg10 mi
10:50 PM64 °FPassing clouds.3 mph100%30.18 "Hg10 mi
10:30 PM64 °FPassing clouds.5 mph100%30.17 "Hg10 mi
10:10 PM64 °FPassing clouds.7 mph100%30.17 "Hg10 mi
9:50 PM65 °FPartly cloudy.6 mph100%30.15 "Hg10 mi
9:10 PM65 °FScattered clouds.3 mph95%30.14 "Hg10 mi
8:50 PM66 °FScattered clouds.No wind91%30.13 "Hg10 mi
8:30 PM66 °FScattered clouds.7 mph87%30.13 "Hg10 mi
8:10 PM67 °FSunny.6 mph86%30.12 "Hg10 mi
7:50 PM67 °FScattered clouds.5 mph86%30.11 "Hg10 mi
7:30 PM68 °FOvercast.5 mph93%30.11 "Hg10 mi
7:10 PM69 °FPartly sunny.7 mph80%30.10 "Hg10 mi
6:50 PM69 °FScattered clouds.7 mph85%30.10 "Hg10 mi
6:30 PM70 °FScattered clouds.7 mph80%30.09 "Hg10 mi
6:10 PM69 °FPartly sunny.8 mph83%30.09 "Hg10 mi
5:50 PM70 °FPartly sunny.8 mph79%30.09 "Hg10 mi
5:10 PM70 °FPartly sunny.7 mph88%30.08 "Hg10 mi
4:50 PM70 °FPartly sunny.9 mph83%30.08 "Hg10 mi
4:10 PM71 °FBroken clouds.14 mph85%30.08 "Hg10 mi
3:50 PM70 °FMostly cloudy.12 mph100%30.08 "Hg10 mi
3:30 PM69 °FMostly cloudy.6 mph99%30.08 "Hg10 mi
3:10 PM69 °FLow clouds.10 mph100%30.08 "Hg10 mi
2:50 PM69 °FMostly cloudy.8 mph94%30.08 "Hg10 mi
2:30 PM70 °FMostly cloudy.8 mph89%30.08 "Hg10 mi
2:10 PM69 °FMostly cloudy.10 mph100%30.08 "Hg10 mi
1:50 PM68 °FLow clouds.13 mph100%30.08 "Hg10 mi
1:30 PM68 °FMostly cloudy.13 mph99%30.08 "Hg10 mi
1:10 PM68 °FMostly cloudy.9 mph100%30.07 "Hg10 mi
Weather by CustomWeather, © 2015

See weather overviewHow to use our weather pages